TIMESTAMP,CO2_1_1_1,H2O_1_1_1,TAU_1_1_1,TAU_SSITC_TEST_1_1_1,H_1_1_1,H_SSITC_TEST_1_1_1,LE_1_1_1,LE_SSITC_TEST_1_1_1,FC_1_1_1,FC_SSITC_TEST_1_1_1,WD_0_0_1,WS_0_0_1,WS_MAX_0_0_1,U_SIGMA_0_0_1,V_SIGMA_0_0_1,W_SIGMA_0_0_1,USTAR_0_0_1,MO_LENGTH_0_0_1,ZL_0_0_1,FETCH_MAX_0_0_1,FETCH_70_0_0_1,FETCH_80_0_0_1,FETCH_90_0_0_1,PA_0_0_1,RH_0_0_1,TA_0_0_1,VPD_0_0_1,T_SONIC_0_0_1,T_SONIC_SIGMA_0_0_1
[yyyymmddHHMMSS],[mmolCO2 mol-1],[mmolH2O mol-1],[kg m-1 s-2],[#],[W m-2],[#],[W m-2],[#],[umolCO2 m-2 s-1],[#],[Decimal degrees],[m s-1],[m s-1],[m s-1],[m s-1],[m s-1],[m s-1],[m],[#],[m],[m],[m],[m],[kPa],[%],[deg C],[hPa],[deg C],[deg C]
20220220003000,419.47836844888070,1.1087848448532680,1.0459512272286222,0,9.8640994803620252,1,13.579328201156068,0,0.39202780047151292,0,156.00286571113284,4.4823525764350798,13.702738273564874,1.9835330458779972,1.7734547658949373,1.2912494665533587,0.91300051259187831,-6406.6916426824027,-2.9656492086210244E-003,94.890687417865252,173.49044043238538,207.62374712080495,259.92029386514287,93.579409529843517,47.880689655172411,-13.441379310344814,1.1297499330815612,-14.094865153035357,0.26334312342835758
20220220010000,419.39814010021144,1.0923894507629155,1.6792877481835400,0,-5.8383682508225183,1,15.451117970854908,0,0.76608733877178914,1,153.12097391390498,4.9559000587845192,15.416538967433150,2.4126087347378951,1.8624545564507891,1.4761704114655416,1.1563017298402067,21974.005481082193,8.6465801678066543E-004,102.99179877649858,188.30185571291676,225.34922832335440,282.11049294861783,93.492315829113878,49.038333333333334,-13.928333333333342,1.0616413259803430,-14.602131173965290,7.9070560141580537E-002
20220220013000,419.22323780443242,1.1272609088491121,1.7688477285992585,0,5.6321675036698302,1,17.551769229796495,0,0.55700830543437740,0,155.84274260433716,5.2324135776056808,14.257737179328895,2.3672698434402917,2.1596953244469126,1.5339416022726708,1.1876969244211470,-24663.777401825184,-7.7036050441300007E-004,102.04044510469231,186.56247778216354,223.26763718356497,279.50458785219195,93.380375531585159,50.107333333333330,-13.822333333333347,1.0484119642096903,-14.518975677286733,8.3643049212877602E-002
20220220020000,419.12600732087287,1.1777353934106805,1.7596969279604815,0,-9.8999446479465622E-004,2,14.055787710696043,0,0.41333438450923887,0,159.55112130853405,5.7023458348469491,16.439376255133887,2.6613435736787752,2.2711884453820081,1.6289418236239901,1.1857591525729736,139562948.52457049,1.3613928482354319E-007,97.124238996056576,177.57408507205849,212.51082677709965,266.03833767285528,93.317473135850719,50.973666666666666,-13.503666666666675,1.0573303911471759,-14.158995105319491,0.21819362035746340
20220220023000,419.11607631557632,1.2143559480941992,2.0218324153723106,0,-0.26677369097874121,2,13.487899653161268,0,0.61108487724991301,0,165.02034363276704,6.0217464416758215,16.981026570659111,2.8333391820879958,2.4375343525485871,1.6783157435172629,1.2724871487723701,639789.78212366626,2.9697254521528840E-005,100.34106101181678,183.45546166962922,219.54933243984911,274.84971154315178,93.258234605034730,50.706000000000003,-13.069999999999993,1.1012460971137230,-13.730527829488096,0.15964315230556730
20220220030000,419.14802685960598,1.2578593778917595,2.0045169742994644,0,21.842967262793525,1,12.655149987162423,0,8.2355641270806593E-002,0,169.02251357277652,6.0936272860543941,18.046936381536877,2.7327793264496112,2.4576849675485657,1.7633636882577606,1.2684357651907368,-7737.9831984981056,-2.4554201673231573E-003,96.204673117298043,175.89282536519315,210.49878830770254,263.51950426634045,93.231071026475689,50.429666666666670,-12.571333333333314,1.1530416268500507,-13.182357204013442,0.18443400640242166
20220220033000,419.14880535481740,1.3194719915306297,1.6952927464769605,0,5.7119596005535307,1,10.641284830918627,0,0.28104204025909951,0,171.62562493758705,6.9795746607500933,17.964514570286603,2.8954754610427011,2.4258760125380197,1.7193747036060723,1.1676321920090849,-23076.308177452065,-8.2335527216459003E-004,91.876262861246374,167.97911094148378,201.02809333338863,251.66331799204823,93.199220815755226,51.164666666666669,-12.161999999999978,1.1740671693420019,-12.789074288262213,0.12365191415660783
20220220040000,419.21319266200203,1.3896777593830567,2.1574866624977402,0,-12.581198664556386,1,14.204018250318024,1,0.71097156140069317,1,174.32726491360205,5.5844855401617171,15.763978427289556,2.8398624043313987,2.2030354754789871,1.6156466184634288,1.3177887412906892,15057.917290213183,1.2617946847369758E-003,106.37863987196525,194.49408141299520,232.75974096983703,291.38757541859371,93.172527561848952,53.249666666666663,-12.017666666666685,1.1370675918908288,-12.614838837941477,9.2521795008280130E-002
20220220043000,419.25468244221940,1.4603918800151880,1.5845987125553662,0,-13.087653104175155,1,12.420560047349664,1,0.23918501454067587,1,176.36697868169506,5.7951024841453522,18.488512867720203,2.7328335535748800,2.1719245238853819,1.5992866888398731,1.1296741449392491,9116.5987707565127,2.0841105852926929E-003,94.814856708720214,173.35179771110401,207.45782719327622,259.71258180465179,93.136677116913063,55.762666666666668,-11.978666666666697,1.0793244947590273,-12.554670975694876,0.10572895715867485
20220220050000,419.12279868980261,1.5660332875693488,1.7223953947458750,0,8.4020316616943909,2,10.481563558471523,1,0.14710908268141262,1,179.87432458581526,5.7718896093340817,15.616637182538952,2.6872105775154043,2.1149885204796157,1.6147489885656723,1.1789626033505909,-16135.070305685416,-1.1775591701825487E-003,97.357834727785900,178.00117257119717,213.02194143389934,266.67819257209692,93.080198859375002,58.055333333333330,-11.617999999999995,1.0534390066878820,-12.196337099711059,0.16262814780742973
20220220053000,418.93327596156718,1.6737698127998470,1.7241401164707670,0,-3.5532109018647100,2,7.6893731616293755,1,0.16503876534489101,1,176.57107283316108,5.5435682159334370,15.285592954676776,2.4890407719809744,2.1431342125183974,1.5961411820524836,1.1811397105612278,38344.750547059630,4.9550459264774036E-004,98.409918968767812,179.92471810877075,215.32393416198960,269.56001430327154,93.007971806933085,59.633333333333333,-11.131000000000029,1.0540620724563694,-11.694554678010832,0.17840461459552576
20220220060000,418.68505922824215,1.7890513797659384,1.7308580960327749,0,-23.589866581706218,1,1.5052029991269200,2,0.29138965147282425,0,176.58529497315789,5.7705260028330922,15.528558465301900,2.6537853415089567,2.0453722669222212,1.5903799965139633,1.1853711640416456,5834.8717861269542,3.2562840618322714E-003,98.977769509101051,180.96293000314083,216.56640863653286,271.11544490801504,92.936264009548609,60.518000000000001,-10.488666666666688,1.0850233383546239,-11.056874231126585,0.20234099858224103
20220220063000,418.69428645414831,1.8572989339560355,1.8670815983673239,0,-21.689108672381447,0,5.1651048022728379,0,0.37520579652193947,0,175.64912007897107,5.7423081131550839,15.541272524339167,2.6176756311068656,2.0733456834269872,1.5432472096967280,1.2323364536933805,7127.2383966998314,2.6658291672687260E-003,104.58994530896118,191.22377727695240,228.84602216632464,286.48806389536418,92.869072598090284,61.226999999999997,-10.172333333333313,1.0925864800713845,-10.751605145772260,0.11273073626382568
20220220070000,418.81253787122739,1.8992742450626428,1.4001684718362470,0,-21.728370273809141,1,1.0518438273724389,2,0.33744604808784923,1,175.44932701054864,5.1475318734117037,13.832439255120528,2.2353457304514555,2.0662807782779060,1.4687994296927238,1.0675147431758936,4622.4390169491980,4.1103841349409446E-003,97.002741601350962,177.35194908493003,212.24498673482964,265.70553748566022,92.808833730506763,62.619666666666667,-10.182333333333304,1.0525091786445209,-10.762434941339734,0.10031933689540172
20220220073000,418.95716142621001,1.9563663944283023,1.2800596057789049,0,-3.1395503368891942,2,6.3959114238896548,1,0.39231405679540376,0,172.32054656581715,4.8179186417844893,13.744227703858080,2.2607266615305037,2.0232791586086583,1.4563757221408056,1.0212332485870974,27990.684851440645,6.7879725347349238E-004,94.261883191401282,172.34078575958719,206.24790410336601,258.19790167078105,92.726702879109610,64.265000000000001,-10.146999999999991,1.0089990692180970,-10.705293994265389,0.11380095945986758
20220220080000,419.07626373603171,2.0236666350918391,1.8445154607884595,0,12.886285727674139,1,8.3272191332664800,1,0.34167170703463084,1,173.57511381519782,4.9083981760445576,14.401982090814551,2.6267339144463091,1.9965874826479575,1.5577493803452132,1.2271387507993430,-11826.623076594895,-1.6065448164659403E-003,103.45983144169371,189.15756869625594,226.37329821226589,283.39250692898133,92.665601085720496,64.587999999999994,-9.7906666666666524,1.0284249796611342,-10.356359826829703,7.4591633836757987E-002
20220220083000,419.13545479663298,2.0586010674327757,1.4846195769222239,0,10.887258209224386,0,3.9158688147843099,0,0.18156649682306963,0,170.36349388866699,5.2386993622606930,14.516784926076179,2.3115615394859130,2.1654529072454123,1.5081214324662120,1.1015831260358240,-10120.859157844945,-1.8773109776231396E-003,97.391189489292671,178.06215571318711,213.09492267954948,266.76955643138126,92.598032958333349,65.055666666666667,-9.6743333333333226,1.0241936096537578,-10.239075456407306,8.8398245449232138E-002
20220220090000,419.06224074290753,2.0973931147040736,1.8539229881476618,0,12.283926902893674,1,7.7248275820339094,0,0.27688483644344747,0,169.11961692125078,5.2706917766236732,16.695081569318454,2.5192887632182259,1.9922698699544696,1.4947174433998094,1.2320323521132639,-12541.826662662859,-1.5149308399041413E-003,107.27667575815750,196.13597742681043,234.72467115228065,293.84743483991548,92.521675334151723,65.070999999999998,-9.4506666666666774,1.0419298414123039,-10.013163208455410,9.7947805794990087E-002
20220220093000,418.91283291919211,2.1357559034926514,1.5284270757154383,0,23.510452005692876,1,7.3798086167689618,0,-0.10086157919811549,2,167.37594524922815,5.4283529987826205,15.393390307401029,2.4820256529192175,2.0457405968127951,1.5237700099903857,1.1197655503408561,-4916.5319514350831,-3.8645126661800912E-003,97.863567680774096,178.92581370451217,214.12850071383676,268.06347348147762,92.433195322267267,64.837333333333333,-9.1863333333333230,1.0709093743041300,-9.7505951934981567,0.13384600012558717
20220220100000,419.03092434560000,2.1301315777784668,1.6172710709481177,0,-1.5570187691166122,2,6.7353219401068838,0,0.61275568371777833,1,166.21989740898692,4.9809328575967520,13.605449093197020,2.3633636872044401,1.9235251314557174,1.4572812785297655,1.1518620614276525,80755.642453159191,2.3527767748266750E-004,103.73864491531424,189.66732864903085,226.98335068122887,284.15622022866353,92.352137085069458,65.765333333333331,-9.4119999999999777,1.0243277480293771,-9.9932628851995560,0.16983479401674631
20220220103000,419.03869792323474,2.1515715120341432,1.3445646730993064,0,6.2100962171115173,1,2.9643791604844605,1,0.26718842029214140,0,165.92261007010430,5.4145663444565777,14.789173130581750,2.3421553594244355,2.0892636935702011,1.5727983942097086,1.0503609508555207,-15344.367727347191,-1.2382393551568522E-003,90.654070281063341,165.74455310657839,198.35389831904126,248.31554316560974,92.282298349826391,67.189666666666668,-9.5666666666666629,0.96983716592279734,-10.130037674797904,8.7163065037928811E-002
20220220110000,419.07852029306082,2.2073858735723526,2.0503797364433125,0,10.137124682762202,1,5.5402833101604037,0,0.38475117807672965,0,170.33185215999563,5.1627439026988569,14.390098643817842,2.5722473840459799,2.1813019094496000,1.6255256851662696,1.2981045552063577,-17737.341420299897,-1.0711864619268718E-003,104.59419215493956,191.23154186586294,228.85531439614687,286.49969666444554,92.234072644531238,67.420999999999992,-9.2913333333333412,0.98407609845198751,-9.8427593595716303,0.11642319706102464
20220220113000,419.16321677279296,2.2744748416758522,1.6722162454372473,0,-12.473749119904628,1,-3.9841826900263126,2,0.17389694958473961,0,172.16542200952887,5.4134232030590326,14.996403971536386,2.5249656803055505,2.0303088739089414,1.5049590268476221,1.1732958396479913,10638.255641969286,1.7860070898317725E-003,102.60326558055969,187.59149311443326,224.49910572210885,281.04624033107609,92.164234772135416,68.113666666666660,-9.0496666666666670,0.98159053117421968,-9.6015650147331826,0.11525545332304052
20220220120000,419.19810716662391,2.3738261373285088,1.1283548521139994,0,-1.0117500327813242,2,0.91264687319607685,2,0.21624991186845754,0,172.52812284528761,5.0103371836293622,13.946602766969429,2.2312186283067108,1.8558301822679242,1.3421264239127610,0.96466566742967808,72869.641315190252,2.6073958451116046E-004,96.143873681353327,175.78166460530068,210.36575726896547,263.35296519187898,92.115680369471292,69.247000000000000,-8.7210000000000036,0.97137176570821460,-9.2502647814077932,0.13951806830856936
20220220123000,419.28767551657006,2.4769937093528438,0.86878547879701906,0,0.50054510508768024,2,0.93573660493698052,2,0.14023031633923891,1,174.81734981333511,5.0023557002536139,12.628250292892602,2.0675469879372139,1.8095162978938721,1.3122865055296931,0.84729859265960783,-99768.182985957974,-1.9044147574256398E-004,88.239117812935049,161.32924978525401,193.06990792761923,241.70061421665915,92.064613137586804,70.203000000000003,-8.3586666666666360,0.96816858165271780,-8.8831676745944605,0.11231494855938799
20220220130000,419.42018423981801,2.5557029101315725,1.0660195552835174,0,5.1864256371425874,2,8.9545714659854951,1,0.66650849359434916,1,171.54876867452890,4.5242808375911645,12.132563078667285,2.0178329562979580,1.6977412094315698,1.2847984567545687,0.93922007792145101,-13110.786057499146,-1.4491884709790016E-003,97.454251269984923,178.17745276081595,213.23290379828435,266.94229241860216,92.023840859921947,71.026666666666671,-8.1123333333333107,0.95963091831981384,-8.6214371975507333,0.10117907043525454
20220220133000,419.45779525444721,2.6556235619764128,1.3071131764368507,0,3.7917723019786211,2,2.3536358936558655,2,0.22759538607365812,0,173.68311761729356,5.3614615178495599,13.769051643260088,2.2676673813854102,1.8805686762011620,1.3632172726663334,1.0411955898826286,-24420.631394490207,-7.7803066157768497E-004,100.93195644210012,184.53580697261876,220.84222984348716,276.46826567171951,91.964190822048607,71.403000000000006,-7.6946666666666488,0.97837593702232140,-8.1983119888304827,0.14834979055795830
20220220140000,419.46331848537244,2.7823647496119315,1.3419111365846352,0,15.380428167706413,1,3.8701761202981788,1,0.22722501055948910,0,175.36466944240436,5.0734225851459485,13.355584792524571,2.2259910395302445,1.7671019918444206,1.3943178079235163,1.0562713323826010,-6285.4011646956824,-3.0228778565035181E-003,100.27343093757962,183.33181232441783,219.40135575411449,274.66446229216439,91.952808180772564,71.342333333333329,-7.0819999999999936,1.0279903933564929,-7.5622978117199864,0.23499086253886153
20220220143000,419.48663502418560,2.9229906838028197,0.89415046567369671,0,-5.9622956192498622,2,-1.2547012678577725,2,0.35550716708516683,0,189.59342076584568,4.3524788102631238,10.931886989755004,1.9370777026551480,1.7091495241018628,1.1996722606817050,0.86311748849451020,8851.1833122524949,2.1466056378810646E-003,96.218977911231846,175.91897909078415,210.53008763748025,263.55868731310858,92.017309733787286,70.930999999999997,-6.3559999999999945,1.1025732496686818,-6.8082475864950425,0.19271886809369448
20220220150000,419.43262621692668,3.0787741944063471,0.89275536823694912,0,-17.694004357516008,2,-7.2869476182479778,2,0.31165018288699325,0,186.43485221001447,4.5763822437115449,11.709180081456839,1.8726157163048587,1.6338473871899599,1.2580067602814502,0.86386228537876997,2989.8545248675923,6.3548242370894039E-003,92.696669576355006,169.47907607200392,202.82316849818139,253.91053908700073,91.994565798611120,70.286666666666662,-5.5596666666666579,1.1976637877172049,-5.9900385708279487,0.28373843487561184
20220220153000,419.35828987319627,3.2543494014301566,0.68599153515209332,0,29.161164727296242,0,5.7328377444271448,0,0.38271579625279739,0,191.23683300146561,4.0544996640540969,10.762817090644070,1.7155692735129171,1.4623787448855492,1.1146192234437802,0.75866216499509376,-1228.7764543997482,-1.5462535868073266E-002,92.043350147111440,168.28459978980172,201.39368546188464,252.12099595418508,91.986644900824658,69.075333333333333,-4.5996666666666783,1.3405637599143432,-5.0149548399182322,0.33102765573501508
20220220160000,419.29778571752030,3.4755560801192891,0.94015237959206932,0,32.045948791951332,0,7.3520090861200709,0,0.67173339128750598,0,199.41439397684158,4.2008897919905204,13.503974891651389,1.8995688599405014,1.7001505704933295,1.1772829855846452,0.89001078835522818,-1805.6966371191993,-1.0522254740592816E-002,100.10745546678073,183.02835622863606,219.03819631123204,274.20982976374273,92.009982143446180,67.581000000000003,-3.4296666666666624,1.5344428817432976,-3.8331554056803725,0.31990803961961234
20220220163000,419.35917281867364,3.6088099608627666,1.1175468306922156,0,44.467613632179784,1,7.6846718231280695,1,0.59234803736315078,1,211.75715255843397,4.0337497308009969,11.758574404635155,1.8373178312899856,1.5414165418761476,1.2395400436213122,0.97149564133133059,-1693.1603909126429,-1.1221618520002507E-002,103.03840703770734,188.38707047934886,225.45120863461858,282.23816019689667,92.061643442815154,66.273666666666671,-2.6549999999999727,1.6911703056271967,-3.0602755265572341,0.16647251222366283
20220220170000,419.40915466124085,3.7872822429274811,1.0776770921357552,0,80.078503189315782,0,27.153621800452626,1,0.87399476930771425,0,222.20908035429468,4.0674120715063662,11.256440655504738,2.0101808138734101,1.5359019308050510,1.1929799564771904,0.95468526055771219,-892.54791362544904,-2.1287372599218472E-002,104.76990646361024,191.55280366331735,229.23978271629187,286.98100537859654,92.101009662760418,67.142333333333326,-2.1736666666666906,1.7074532902858766,-2.6213743481105780,0.14988584568637608
20220220173000,419.20947629070741,4.0327353133779269,0.99386412780000932,0,145.04828512419755,0,17.009297185120204,0,0.63725152939300489,0,226.90376786989611,3.7807996398404744,11.629160515384701,1.9566077114230442,1.5129545749742255,1.0473481462510941,0.91804510026013497,-438.33328589456062,-4.3346012295699524E-002,112.68685513268079,206.02751081165067,246.56231028105714,308.66675432378378,92.141599143394416,67.305000000000007,-1.3486666666666451,1.8055351843184035,-1.8420756172478150,0.38745374414814593
20220220180000,419.25858394634815,4.0349437972368065,1.0157028348333279,0,79.490253568933568,0,11.800088549679062,0,0.75613676203854108,0,234.29353958093645,4.6373018319605182,12.434106910509874,1.9029841126732592,1.6705021892071270,1.1955993219390046,0.92885846384569348,-828.76962744893933,-2.2925550564014359E-002,102.31657784529941,187.06733650001394,223.87182412611619,280.26095820883535,92.192284139539936,64.444333333333333,-0.74099999999998545,2.0529228795942522,-1.2807203352185752,0.17433454908993679
20220220183000,419.19541615872930,4.0698584697999705,1.0824941997614661,0,64.203949042776628,0,12.133911070128384,0,0.37453350459009693,0,252.38156112596886,3.9138736825748013,10.588315801729479,1.9718878964515281,1.3720521630915072,1.0435236641843653,0.95893406339481835,-1129.7423344946130,-1.6817994174308425E-002,117.02645647158339,213.96168610402438,256.05749168938348,320.55359470779359,92.273181223741332,63.893000000000001,-0.49333333333333940,2.1228015959278550,-0.98216931745741931,0.19428927486617373
20220220190000,419.04080721480614,4.1173165609471134,0.99632218301133268,0,130.94577929590469,0,14.499364326070033,0,0.16111407652302159,2,253.45981525636938,4.8033778568990959,11.379712808698637,1.8241289754675951,1.6328787970769507,1.1423867487319148,0.92084071273595880,-490.60821241728650,-3.8727439775996984E-002,105.37849317337790,192.66549426754844,230.57138918441080,288.64801866250963,92.300308136935769,61.944333333333333,9.5666666666659239E-002,2.3353481862824181,-0.54762001207132016,0.28629443005623612
20220220193000,419.03980579933130,4.1499145396813608,1.0966998817173552,0,177.82875646517564,0,14.444839821006045,0,0.64996844038049240,0,268.40167703433627,4.5716602050320558,12.655088304914900,1.8794827581653171,2.0451280026019663,1.1742589483102153,0.96705671007630156,-418.66528270413630,-4.5382315622828892E-002,107.20260809370301,196.00055811351766,234.56260882084442,293.64455203197315,92.369883674913183,59.239333333333335,0.83199999999999363,2.6382572810040488,2.5632847256133573E-002,0.37195532454092328
20220220200000,419.30593082790955,4.0605419153194351,1.2915360503585567,0,170.89916370557532,0,19.753441025240281,0,7.7523856134524796E-002,0,277.77447696151080,5.0239445266046507,13.447386253482017,2.2314661555215416,1.7517531794231218,1.2124731121068835,1.0491503878679362,-556.64184602720968,-3.4133258459823457E-002,111.52889596021546,203.91039213224792,244.02865994146762,305.49492475250429,92.457786952907995,57.543666666666667,0.94600000000002638,2.7706962954597678,0.14836839633511545,0.35661055300673655
20220220203000,419.42188334441602,4.0290795013839205,1.0819010608272779,0,118.74460341031151,0,14.845689102711368,1,1.3884540085926873,1,293.47094428637837,4.5420419881462379,12.251008638046329,2.0122482703053581,1.7570339104398547,1.1139239558576703,0.95927388764562138,-612.78113788017470,-3.1006176309094104E-002,111.10268711509686,203.13114643103191,243.09610185924114,304.32747269492444,92.545124192573752,58.350666666666669,0.65833333333335986,2.6621841331013090,-0.16012337691989842,0.36518558660853462
20220220210000,419.39673175295604,4.0956192435363601,1.2399488075023197,0,110.38577090587896,0,6.8398028730644640,0,0.48560423608687059,0,296.42746494682240,4.7220490385648564,12.859260775973434,2.1081312817042277,1.8324891383492408,1.1560248777734212,1.0240431303394313,-802.80908547704223,-2.3666897078911221E-002,113.64118518686665,207.77233051866227,248.65041383717875,311.28081219266613,92.688866837359356,64.502333333333340,-0.47533333333331029,2.0897195639233250,-1.1598046796989365,0.33792011773597064
20220220213000,419.28664525406606,4.0453532318104308,1.2520742097436692,0,90.587794093120152,0,4.8570663073253639,0,0.51149681101058198,0,295.97509776906679,4.4533920977414541,12.614266039348040,2.1282212466488506,1.4156469821089239,1.0953769875218438,1.0263296399850546,-985.95642012001474,-1.9270628612253714E-002,118.85939263495251,217.31287799566923,260.06801247733046,325.57429082859392,92.839994495008696,68.593000000000004,-1.4613333333333571,1.7201039432155147,-2.0283100763955417,0.33679989646208169
20220220220000,419.33909162506063,4.0923025433740667,0.80212963601447584,0,39.949436597471504,0,2.4884613472495420,0,0.22809816073044759,1,287.34902933270553,4.7022686082961132,11.601162118963996,1.9740843107638602,1.5853374234245854,1.0886107385743042,0.81960169099892366,-1139.5621577886207,-1.6673070328055192E-002,99.778985775898022,182.42780887366766,218.31949450926950,273.31010039194393,92.952328795355896,74.327333333333328,-2.3763333333333208,1.3142165075736092,-2.8777936257257011,0.21350249535465621
20220220223000,419.42601235426173,4.0083270177132926,0.74509924506535352,0,36.101750133979877,0,4.5101899086726558,1,0.58593785474412141,0,294.83041730230593,3.7475561897179608,10.390992412545883,1.7167486458338550,1.5097608300294578,0.92650076199123865,0.78854437408940981,-1123.9564846743690,-1.6904569046109159E-002,110.06245233021716,201.22926547840333,240.82003610611787,301.47810845980172,93.062780592013880,76.316666666666663,-2.9950000000000045,1.1579214103386812,-3.4664771660698079,0.25593441600792372